FW1693 Weather Reports


Display with metric or nautical units.
time (UTC)temp
F
wind
direction
speed
MPH
gust
MPH
rain 1hr
in
rain 24hr
in
rain mn
in
humidity
%
barometer
mb
20260507073038 65 171 2.0 5.0 0.00 0.20 0.00 58 1014.6
20260507073005 65 184 2.0 5.0 0.00 0.20 0.00 60 1014.6
20260507071558 65 244 1.0 5.0 0.00 0.20 0.00 59 1014.7
20260507070032 64 270 2.0 7.0 0.00 0.20 0.00 62 1014.7
20260507064527 64 268 3.0 7.0 0.00 0.20 0.00 61 1014.5
20260507063057 63 248 3.0 6.0 0.00 0.20 0.00 65 1014.5
20260507061556 62 272 2.0 5.0 0.00 0.20 0.00 67 1014.3
20260507060044 61 241 2.0 4.0 0.00 0.20 0.00 72 1014.1
20260507054541 60 276 2.0 5.0 0.00 0.20 0.00 73 1014.1
20260507053105 59 260 2.0 4.0 0.00 0.23 0.00 74 1014.0
20260507051542 58 257 1.0 4.0 0.00 0.23 0.00 75 1013.9
20260507050036 56 262 1.0 4.0 0.00 0.23 0.00 77 1013.8
20260507044531 55 217 1.0 4.0 0.00 0.23 0.00 78 1013.4
20260507043028 55 212 2.0 3.0 0.00 0.23 0.00 78 1013.3
20260507041528 55 229 1.0 3.0 0.00 0.23 0.00 79 1013.1
20260507040100 55 243 0.0 2.0 0.00 0.23 0.00 81 1013.0
20260507034555 56 225 0.0 2.0 0.00 0.23 0.00 77 1013.0
20260507033051 57 259 1.0 4.0 0.00 0.23 0.00 76 1013.0
20260507031551 57 276 0.0 3.0 0.00 0.23 0.00 77 1012.8
20260507030047 57 266 0.0 2.0 0.00 0.23 0.00 77 1012.9
20260507024545 57 252 0.0 4.0 0.00 0.23 0.00 76 1012.8
20260507023042 57 252 1.0 3.0 0.00 0.23 0.00 78 1012.9
20260507021543 57 279 1.0 3.0 0.00 0.23 0.00 78 1013.0
20260507020041 58 241 0.0 3.0 0.00 0.23 0.00 78 1012.9
20260507014547 58 255 2.0 7.0 0.00 0.23 0.00 76 1013.0
20260507013031 58 262 3.0 7.0 0.00 0.23 0.19 76 1012.7
20260507011538 58 222 3.0 8.0 0.00 0.23 0.19 78 1012.6
20260507010112 58 241 4.0 8.0 0.00 0.23 0.19 79 1012.6
20260507004615 58 210 3.0 8.0 0.00 0.23 0.19 78 1012.6
20260507003029 58 148 2.0 7.0 0.00 0.23 0.19 78 1012.7
20260507001528 58 223 4.0 9.0 0.00 0.23 0.19 79 1012.6
20260507000026 58 207 3.0 9.0 0.01 0.23 0.19 80 1012.8
20260506234525 58 224 1.0 5.0 0.01 0.23 0.19 80 1013.0
20260506233025 58 242 2.0 5.0 0.01 0.23 0.19 81 1013.2
20260506231523 58 258 1.0 7.0 0.01 0.23 0.19 81 1013.2
20260506230020 59 256 3.0 7.0 0.00 0.22 0.18 79 1013.3
20260506224520 59 233 3.0 6.0 0.00 0.22 0.18 81 1013.3
20260506223018 59 293 1.0 5.0 0.00 0.22 0.18 85 1013.3
20260506221517 59 230 0.0 1.0 0.00 0.22 0.18 85 1013.2
20260506220028 59 228 0.0 4.0 0.00 0.22 0.18 84 1013.1
20260506214512 59 288 1.0 5.0 0.00 0.22 0.18 83 1013.1
20260506213012 59 257 2.0 9.0 0.00 0.22 0.18 82 1013.2
20260506211511 59 298 2.0 8.0 0.00 0.22 0.18 82 1012.9
20260506210012 60 259 5.0 12.0 0.01 0.22 0.18 79 1013.0
20260506204508 60 227 3.0 7.0 0.01 0.22 0.18 83 1012.9
20260506203008 60 229 2.0 9.0 0.03 0.22 0.18 85 1012.9
20260506201506 59 198 4.0 7.0 0.03 0.22 0.18 86 1012.9
20260506200004 59 252 0.0 4.0 0.03 0.21 0.17 86 1012.7
20260506194503 60 206 1.0 8.0 0.03 0.21 0.17 84 1012.4
20260506193059 60 233 2.0 5.0 0.01 0.19 0.15 85 1012.4
20260506191608 60 250 0.0 4.0 0.02 0.19 0.15 86 1012.1
20260506190028 60 224 0.0 5.0 0.08 0.18 0.14 85 1011.9
20260506184526 60 248 0.0 5.0 0.10 0.18 0.14 84 1011.7
20260506183132 60 208 0.0 2.0 0.10 0.18 0.14 83 1011.4
20260506181600 60 274 1.0 11.0 0.09 0.17 0.13 84 1011.7
20260506180111 62 311 3.0 11.0 0.03 0.10 0.06 82 1011.8
20260506174545 63 281 2.0 8.0 0.01 0.08 0.04 78 1011.2
20260506173113 63 251 2.0 6.0 0.01 0.08 0.04 77 1010.8
20260506173059 63 236 2.0 6.0 0.01 0.08 0.04 77 1010.8
20260506171546 63 285 3.0 9.0 0.01 0.08 0.04 77 1010.7
20260506170043 62 231 0.0 5.0 0.00 0.07 0.03 79 1010.6
20260506164513 62 302 2.0 7.0 0.00 0.07 0.03 79 1010.4
20260506163015 62 287 1.0 4.0 0.02 0.07 0.03 79 1010.7
20260506161506 62 300 1.0 6.0 0.03 0.07 0.03 79 1010.8
20260506160006 61 218 0.0 4.0 0.03 0.07 0.03 81 1011.0
20260506154503 61 250 2.0 9.0 0.03 0.07 0.03 80 1011.1
20260506153005 61 271 4.0 10.0 0.02 0.06 0.02 79 1011.1
20260506151601 64 274 4.0 18.0 0.00 0.04 0.00 79 1011.2
20260506150101 66 359 3.0 11.0 0.00 0.04 0.00 76 1011.0
20260506144607 69 281 5.0 14.0 0.00 0.04 0.00 66 1010.6
20260506143057 71 230 5.0 11.0 0.00 0.04 0.00 57 1010.2
20260506141553 70 206 8.0 13.0 0.00 0.04 0.00 58 1010.4
20260506140057 71 150 9.0 15.0 0.00 0.04 0.00 64 1010.4
20260506134551 70 160 7.0 13.0 0.00 0.04 0.00 64 1010.5
20260506133049 70 173 10.0 17.0 0.00 0.04 0.00 65 1010.7
20260506131542 70 160 9.0 14.0 0.00 0.04 0.00 64 1010.9
20260506130039 69 233 6.0 15.0 0.00 0.04 0.00 64 1011.1
20260506124540 69 183 9.0 17.0 0.00 0.04 0.00 69 1011.1
20260506123037 69 167 10.0 17.0 0.00 0.04 0.00 67 1011.1
20260506121532 68 160 12.0 16.0 0.00 0.04 0.00 69 1011.2
20260506120033 69 167 11.0 17.0 0.00 0.04 0.00 65 1011.3
20260506114530 69 179 7.0 15.0 0.00 0.04 0.00 63 1011.4
20260506113031 69 185 7.0 19.0 0.00 0.17 0.00 64 1011.5
20260506111559 65 134 9.0 13.0 0.00 0.17 0.00 77 1011.6
20260506110055 65 141 12.0 19.0 0.00 0.17 0.00 79 1011.9
20260506104555 65 131 13.0 18.0 0.00 0.17 0.00 79 1012.0
20260506103148 65 143 11.0 17.0 0.00 0.18 0.00 76 1012.0
20260506101547 65 156 14.0 18.0 0.00 0.18 0.00 76 1012.1
20260506100045 65 160 13.0 18.0 0.00 0.18 0.00 76 1012.1
20260506094541 65 150 13.0 18.0 0.00 0.18 0.00 77 1012.0
20260506093043 64 139 14.0 19.0 0.00 0.18 0.00 75 1012.1
20260506091542 65 146 14.0 18.0 0.00 0.18 0.00 76 1012.2
20260506090039 65 169 14.0 19.0 0.00 0.18 0.00 76 1012.1
20260506084536 64 169 15.0 20.0 0.00 0.18 0.00 78 1012.0
20260506083027 63 191 13.0 17.0 0.00 0.18 0.00 81 1012.1
20260506081525 63 158 10.0 13.0 0.00 0.18 0.00 83 1012.0